Location: ?????
(55.6500°N, 37.2500°E)
Time: 04:52:59
(UTC+00:00)

Cosmos 1733 - Pass Details

Date: 19 May 2025
Orbit: 375 x 381 km, 82.5° (Epoch: 19 June)

Event Time Altitude Azimuth Distance (km) Brightness Sun altitude
Rises 18:54:35 0° 344° (NNW) 2,320 8.1 -7.8°
Reaches altitude 10° 18:56:38 10° 338° (NNW) 1,456 7.0 -7.9°
Maximum altitude 18:59:41 47° 264° (W) 543 3.5 -8.2°
Drops below altitude 10° 19:02:42 10° 189° (S) 1,437 5.0 -8.4°
Enters shadow 19:03:22 - 186° (S) 1,715 5.4 -8.5°
